Content
SEND FEEDBACK

Daily
Averages
Monthly
Summary
United States of America

WILMINGTON, NORTH CAROLINA


Home > North America > United States > North Carolina
Elevation: 21 meters     Latitude: 34 16N     Longitude: 077 54W

WEATHER
 
SELECT A DAY
Number of Records: 208,628;   Date Range: 1/1/95 - 7/20/14
 
SHARE

PRINT THIS DATA

[ ← Previous Day ]
WEATHER ALMANAC - 1 FEBRUARY, 2013
[ Next Day → ]
[ °F ]   °C
Weather ElementAverageHighLow
Temperature6.2 °C12.2 °C (10:53 am)-2.2 °C (9:53 pm)
Dewpoint-7.4 °C-2.2 °C (9:53 am)-16.1 °C (2:53 pm)
Humidity40.4 %69 % (9:53 pm)15 % (2:53 pm)
Barometer1022.4 hPa1029.1 hPa (10:53 pm)1017.6 hPa (6:53 am)
Wind Speed21.1 km/h42.6 km/h (10:53 am)
Wind Gust64.9 km/h (10:53 am)
Weather ElementAverage
Visibility16.1 km
Wind DirectionSSW (214.8 °)

Weather ElementTotal
Precipitation---
Heating Degree Days13.3 (Base 18.3)
Averaged from 23 records on 1 February, 2013
WEATHER CONDITIONS BREAKOUT
WIND DIRECTION BREAKOUT
WEATHER BY HOUR - 1 FEBRUARY, 2013
[ °F ]   °C
Local TimeTemperatureDewpointHumidityBarometerVisibilityWind DirectionWind SpeedGust SpeedPrecipitationEventsConditions
1:53 AM6.1 °C-3.9 °C49 %1019.3 hPa16.1 kmWest (260°)16.7 km/hClear
2:53 AM5.6 °C-3.3 °C53 %1018.6 hPa16.1 kmWSW (240°)18.5 km/hClear
3:53 AM6.1 °C-3.9 °C49 %1018.6 hPa16.1 kmSW (230°)22.2 km/hClear
4:53 AM5.6 °C-3.9 °C51 %1018.3 hPa16.1 kmWSW (240°)20.4 km/h33.3 km/hClear
5:53 AM6.1 °C-3.9 °C49 %1017.9 hPa16.1 kmSW (230°)20.4 km/hClear
6:53 AM6.7 °C-3.9 °C47 %1017.6 hPa16.1 kmSW (220°)25.9 km/h35.2 km/hClear
7:53 AM7.8 °C-3.9 °C44 %1017.9 hPa16.1 kmSW (230°)25.9 km/h40.7 km/hClear
8:53 AM10.6 °C-3.3 °C38 %1018.3 hPa16.1 kmWSW (250°)37 km/h51.8 km/hClear
9:53 AM11.1 °C-2.2 °C40 %1019 hPa16.1 kmWest (270°)38.9 km/h57.5 km/hClear
10:53 AM12.2 °C-2.2 °C37 %1019.6 hPa16.1 kmWest (280°)42.6 km/h64.9 km/hPartly Cloudy
11:53 AM12.2 °C-2.2 °C37 %1020 hPa16.1 kmWNW (290°)33.3 km/h48.1 km/hMostly Cloudy
12:53 PM11.1 °C-5 °C32 %1021.3 hPa16.1 kmWNW (300°)35.2 km/h50.1 km/hClear
1:53 PM10.6 °C-10.6 °C22 %1021.7 hPa16.1 kmNW (310°)35.2 km/h48.1 km/hClear
2:53 PM10 °C-16.1 °C15 %1022 hPa16.1 kmWNW (300°)31.5 km/h48.1 km/hClear
3:53 PM9 °C-14 °C19 %1023.4 hPa16.1 kmWNW (290°)29.6 km/hClear
4:53 PM7.8 °C-16.1 °C17 %1024.4 hPa16.1 kmNW (310°)22.2 km/h38.9 km/hClear
5:53 PM5 °C-13.3 °C26 %1025.4 hPa16.1 kmNNW (340°)14.8 km/hClear
6:53 PM3.3 °C-12.2 °C32 %1026.4 hPa16.1 kmNorth (10°)7.4 km/hClear
7:53 PM2.2 °C-12.2 °C34 %1027.4 hPa16.1 kmNNW (340°)5.6 km/hClear
8:53 PM0.6 °C-10 °C46 %1028.1 hPa16.1 kmCalmClear
9:53 PM-2.2 °C-7.2 °C69 %1028.8 hPa16.1 kmCalmClear
10:53 PM-2.2 °C-8.9 °C61 %1029.1 hPa16.1 kmCalmClear
11:53 PM-2.2 °C-8.3 °C63 %1029.1 hPa16.1 kmCalmClear
Hourly data recorded from KILM, located 0 kilometers away from Wilmington, North Carolina







STORIES FROM OUR PARTNERS